TimeCST,TemperatureF,Dew PointF,Humidity,Sea Level PressureIn,VisibilityMPH,Wind Direction,Wind SpeedMPH,Gust SpeedMPH,PrecipitationIn,Events,Conditions,WindDirDegrees,DateUTC
12:56 AM,17.1,8.1,68,30.45,-9999.0,ESE,5.8,-,N/A,,Unknown,120,2013-02-01 06:56:00
1:56 AM,-9999,-9999,N/A,30.44,-9999.0,East,4.6,-,N/A,,Unknown,100,2013-02-01 07:56:00
2:56 AM,14.0,8.1,77,30.46,-9999.0,South,3.5,-,N/A,,Unknown,190,2013-02-01 08:56:00
3:56 AM,14.0,7.0,74,30.44,-9999.0,SSE,3.5,-,N/A,,Unknown,160,2013-02-01 09:56:00
4:56 AM,12.9,8.1,81,30.44,-9999.0,Calm,Calm,-,N/A,,Unknown,0,2013-02-01 10:56:00
5:56 AM,12.9,8.1,81,30.44,-9999.0,Calm,Calm,-,N/A,,Unknown,0,2013-02-01 11:56:00
6:56 AM,14.0,7.0,74,30.44,-9999.0,Calm,Calm,-,N/A,,Unknown,0,2013-02-01 12:56:00
7:56 AM,14.0,7.0,74,30.44,-9999.0,Calm,Calm,-,N/A,,Unknown,0,2013-02-01 13:56:00
8:56 AM,18.0,8.1,65,30.43,-9999.0,South,4.6,-,N/A,,Unknown,180,2013-02-01 14:56:00
9:56 AM,21.0,9.0,60,30.43,-9999.0,SSW,11.5,-,N/A,,Unknown,200,2013-02-01 15:56:00
10:56 AM,25.0,6.1,45,30.41,-9999.0,South,10.4,-,N/A,,Unknown,190,2013-02-01 16:56:00
11:56 AM,28.0,5.0,38,30.36,-9999.0,South,10.4,-,N/A,,Unknown,170,2013-02-01 17:56:00
12:56 PM,30.9,5.0,33,30.32,-9999.0,SSW,11.5,18.4,N/A,,Unknown,200,2013-02-01 18:56:00
1:56 PM,34.0,6.1,31,30.25,-9999.0,South,13.8,-,N/A,,Unknown,180,2013-02-01 19:56:00
2:56 PM,36.0,7.0,30,30.22,-9999.0,South,16.1,-,N/A,,Unknown,180,2013-02-01 20:56:00
3:56 PM,37.9,9.0,30,30.19,-9999.0,South,11.5,-,N/A,,Unknown,190,2013-02-01 21:56:00
4:56 PM,39.0,10.9,32,30.17,-9999.0,SSE,9.2,-,N/A,,Unknown,150,2013-02-01 22:56:00
5:56 PM,36.0,12.0,37,30.17,-9999.0,Variable,4.6,-,N/A,,Unknown,0,2013-02-01 23:56:00
6:56 PM,33.1,12.9,43,30.19,-9999.0,ESE,5.8,-,N/A,,Unknown,120,2013-02-02 00:56:00
7:56 PM,30.9,12.9,47,30.19,-9999.0,ESE,6.9,-,N/A,,Unknown,120,2013-02-02 01:56:00
8:56 PM,28.9,12.9,51,30.19,-9999.0,SE,4.6,-,N/A,,Unknown,140,2013-02-02 02:56:00
9:56 PM,28.0,12.9,53,30.21,-9999.0,Calm,Calm,-,N/A,,Unknown,0,2013-02-02 03:56:00
10:56 PM,24.1,12.9,62,30.21,-9999.0,Calm,Calm,-,N/A,,Unknown,0,2013-02-02 04:56:00
11:56 PM,21.9,12.9,68,30.22,-9999.0,North,5.8,-,N/A,,Unknown,10,2013-02-02 05:56:00